�������l�o���
Date,Time,MP-1(��Sv/h),MP-2(��Sv/h),MP-3(��Sv/h),MP-4(��Sv/h),MP-5(��Sv/h),MP-6(��Sv/h),MP-7(��Sv/h),MP-8(��Sv/h),����,����(m/s),���J
2021/02/13,00:00,0.666,0.966,0.613,1.216,0.862,0.378,0.670,0.632,��,1.9,��
2021/02/13,00:10,0.667,0.968,0.612,1.220,0.864,0.379,0.669,0.633,��,2.2,��
2021/02/13,00:20,0.665,0.964,0.611,1.220,0.863,0.379,0.670,0.631,��,2.8,��
2021/02/13,00:30,0.666,0.968,0.613,1.220,0.862,0.379,0.669,0.631,��,3.6,��
2021/02/13,00:40,0.666,0.968,0.612,1.218,0.864,0.378,0.669,0.634,��쐼,3.4,��
2021/02/13,00:50,0.668,0.966,0.613,1.219,0.862,0.378,0.672,0.632,��쐼,3.5,��
2021/02/13,01:00,0.666,0.965,0.612,1.218,0.862,0.380,0.670,0.633,��쐼,3.9,��
2021/02/13,01:10,0.665,0.964,0.613,1.221,0.862,0.377,0.669,0.633,��쐼,3.9,��
2021/02/13,01:20,0.667,0.966,0.612,1.217,0.863,0.378,0.669,0.633,��쐼,4.0,��
2021/02/13,01:30,0.666,0.963,0.611,1.220,0.862,0.379,0.670,0.631,��쐼,4.4,��
2021/02/13,01:40,0.666,0.968,0.612,1.221,0.862,0.379,0.670,0.632,��쐼,4.1,��
2021/02/13,01:50,0.666,0.968,0.611,1.218,0.861,0.378,0.672,0.632,��,4.1,��
2021/02/13,02:00,0.666,0.968,0.613,1.218,0.861,0.378,0.671,0.633,��쐼,3.7,��
2021/02/13,02:10,0.667,0.967,0.610,1.216,0.861,0.378,0.671,0.632,��쐼,3.7,��
2021/02/13,02:20,0.668,0.965,0.611,1.219,0.861,0.378,0.669,0.632,��쐼,3.4,��
2021/02/13,02:30,0.668,0.968,0.612,1.215,0.863,0.379,0.670,0.633,��쐼,4.0,��
2021/02/13,02:40,0.666,0.965,0.612,1.220,0.860,0.379,0.670,0.634,��쐼,4.3,��
2021/02/13,02:50,0.665,0.967,0.611,1.219,0.862,0.377,0.670,0.631,��쐼,4.3,��
2021/02/13,03:00,0.665,0.966,0.610,1.219,0.861,0.378,0.671,0.632,��쐼,4.1,��
2021/02/13,03:10,0.666,0.967,0.611,1.218,0.862,0.378,0.671,0.631,��쐼,4.6,��
2021/02/13,03:20,0.666,0.967,0.611,1.220,0.860,0.378,0.669,0.632,��쐼,4.5,��
2021/02/13,03:30,0.665,0.966,0.613,1.218,0.860,0.378,0.669,0.634,��쐼,4.6,��
2021/02/13,03:40,0.667,0.966,0.612,1.220,0.863,0.376,0.670,0.632,��쐼,5.0,��
2021/02/13,03:50,0.667,0.966,0.610,1.218,0.862,0.379,0.670,0.632,��쐼,5.4,��
2021/02/13,04:00,0.664,0.965,0.611,1.222,0.863,0.378,0.672,0.632,��쐼,5.0,��
2021/02/13,04:10,0.665,0.965,0.612,1.218,0.861,0.379,0.670,0.631,��쐼,5.3,��
2021/02/13,04:20,0.665,0.967,0.612,1.218,0.860,0.378,0.670,0.631,��쐼,5.2,��
2021/02/13,04:30,0.665,0.965,0.611,1.218,0.861,0.378,0.670,0.632,��쐼,4.4,��
2021/02/13,04:40,0.665,0.967,0.610,1.218,0.861,0.379,0.668,0.631,��쐼,3.8,��
2021/02/13,04:50,0.665,0.966,0.609,1.217,0.861,0.378,0.670,0.631,��쐼,4.3,��
2021/02/13,05:00,0.665,0.966,0.610,1.221,0.861,0.377,0.669,0.632,�쐼,4.5,��
2021/02/13,05:10,0.663,0.965,0.611,1.219,0.862,0.378,0.669,0.633,��쐼,5.6,��
2021/02/13,05:20,0.666,0.966,0.611,1.219,0.858,0.378,0.669,0.632,��쐼,7.1,��
2021/02/13,05:30,0.665,0.966,0.611,1.219,0.861,0.378,0.671,0.631,��쐼,6.9,��
2021/02/13,05:40,0.665,0.964,0.612,1.221,0.860,0.378,0.671,0.633,��쐼,6.7,��
2021/02/13,05:50,0.666,0.965,0.611,1.219,0.862,0.379,0.670,0.634,��쐼,5.6,��
2021/02/13,06:00,0.665,0.965,0.610,1.217,0.861,0.379,0.669,0.633,��쐼,5.9,��
2021/02/13,06:10,0.664,0.965,0.611,1.216,0.861,0.378,0.671,0.632,��쐼,6.1,��
2021/02/13,06:20,0.665,0.966,0.610,1.218,0.860,0.377,0.669,0.630,�쐼,4.0,��
2021/02/13,06:30,0.666,0.965,0.611,1.217,0.860,0.378,0.672,0.632,�쐼,3.7,��
2021/02/13,06:40,0.665,0.966,0.611,1.220,0.862,0.377,0.670,0.632,���쐼,2.3,��
2021/02/13,06:50,0.666,0.964,0.610,1.220,0.860,0.378,0.671,0.630,���쐼,2.0,��
2021/02/13,07:00,0.665,0.966,0.610,1.220,0.861,0.378,0.672,0.632,���쐼,1.2,��
2021/02/13,07:10,0.665,0.966,0.610,1.219,0.860,0.377,0.670,0.632,��,0.9,��
2021/02/13,07:20,0.666,0.966,0.610,1.218,0.860,0.378,0.673,0.632,-,CALM,��
2021/02/13,07:30,0.666,0.965,0.610,1.218,0.861,0.380,0.669,0.633,�k��,0.9,��
2021/02/13,07:40,0.666,0.966,0.611,1.219,0.860,0.379,0.670,0.632,-,CALM,��
2021/02/13,07:50,0.665,0.967,0.610,1.219,0.859,0.379,0.670,0.632,-,CALM,��
2021/02/13,08:00,0.665,0.968,0.611,1.219,0.859,0.379,0.670,0.632,�k�k��,3.4,��
2021/02/13,08:10,0.668,0.968,0.612,1.220,0.861,0.378,0.671,0.632,�k��,4.2,��
2021/02/13,08:20,0.667,0.969,0.612,1.221,0.861,0.378,0.670,0.633,�k��,3.4,��
2021/02/13,08:30,0.668,0.969,0.611,1.220,0.862,0.379,0.671,0.633,�k��,3.4,��
2021/02/13,08:40,0.666,0.969,0.611,1.219,0.860,0.380,0.672,0.633,���k��,2.5,��
2021/02/13,08:50,0.668,0.969,0.612,1.220,0.860,0.379,0.672,0.632,�k��,2.3,��
2021/02/13,09:00,0.669,0.967,0.613,1.219,0.861,0.378,0.672,0.632,�k��,2.6,��
2021/02/13,09:10,0.668,0.968,0.613,1.221,0.861,0.380,0.673,0.633,�k��,2.3,��
2021/02/13,09:20,0.667,0.968,0.613,1.221,0.862,0.379,0.673,0.634,�k�k��,2.0,��
2021/02/13,09:30,0.669,0.969,0.613,1.222,0.863,0.379,0.673,0.635,�k�k��,1.5,��
2021/02/13,09:40,0.669,0.967,0.612,1.221,0.863,0.380,0.673,0.634,�k�k��,1.7,��
2021/02/13,09:50,0.668,0.965,0.613,1.220,0.862,0.379,0.673,0.633,�k�k��,2.5,��
2021/02/13,10:00,0.668,0.967,0.612,1.219,0.863,0.380,0.670,0.635,�k��,2.2,��
2021/02/13,10:10,0.669,0.967,0.614,1.222,0.863,0.379,0.671,0.632,�k��,2.2,��
2021/02/13,10:20,0.668,0.965,0.612,1.221,0.864,0.379,0.671,0.634,�k��,1.7,��
2021/02/13,10:30,0.667,0.966,0.614,1.219,0.863,0.379,0.671,0.632,�k��,1.7,��
2021/02/13,10:40,0.668,0.965,0.614,1.219,0.864,0.380,0.669,0.634,���k��,1.5,��
2021/02/13,10:50,0.668,0.966,0.614,1.220,0.865,0.381,0.670,0.633,�k��,2.3,��
2021/02/13,11:00,0.668,0.966,0.613,1.219,0.865,0.380,0.671,0.635,��,2.9,��
2021/02/13,11:10,0.669,0.966,0.614,1.223,0.865,0.381,0.671,0.635,��,1.8,��
2021/02/13,11:20,0.668,0.965,0.612,1.220,0.864,0.379,0.670,0.634,��,1.9,��
2021/02/13,11:30,0.668,0.966,0.613,1.220,0.865,0.380,0.672,0.633,���k��,1.7,��
2021/02/13,11:40,0.667,0.967,0.613,1.222,0.865,0.381,0.671,0.635,���쓌,1.5,��
2021/02/13,11:50,0.667,0.966,0.614,1.220,0.865,0.380,0.672,0.633,���쓌,1.9,��
2021/02/13,12:00,0.668,0.967,0.613,1.223,0.863,0.380,0.670,0.635,���쓌,1.9,��
2021/02/13,12:10,0.668,0.968,0.614,1.223,0.864,0.380,0.673,0.634,�쓌,3.0,��
2021/02/13,12:20,0.668,0.968,0.616,1.220,0.864,0.380,0.670,0.634,��쓌,2.3,��
2021/02/13,12:30,0.669,0.969,0.615,1.223,0.862,0.381,0.670,0.634,�쓌,3.1,��
2021/02/13,12:40,0.671,0.970,0.611,1.221,0.863,0.380,0.671,0.635,��쓌,3.3,��
2021/02/13,12:50,0.669,0.968,0.613,1.220,0.864,0.382,0.671,0.634,�쓌,3.0,��
2021/02/13,13:00,0.670,0.970,0.614,1.221,0.863,0.381,0.671,0.634,�쓌,2.3,��
2021/02/13,13:10,0.668,0.969,0.612,1.220,0.862,0.380,0.672,0.633,�쓌,2.0,��
2021/02/13,13:20,0.670,0.969,0.614,1.219,0.862,0.382,0.671,0.631,�쓌,2.3,��
2021/02/13,13:30,0.668,0.969,0.611,1.221,0.863,0.382,0.672,0.632,�쓌,2.2,��
2021/02/13,13:40,0.669,0.969,0.613,1.223,0.864,0.381,0.673,0.631,���쓌,1.7,��
2021/02/13,13:50,0.667,0.970,0.611,1.220,0.864,0.381,0.674,0.632,���쓌,2.0,��
2021/02/13,14:00,0.669,0.968,0.611,1.220,0.864,0.380,0.672,0.632,��,1.7,��
2021/02/13,14:10,0.669,0.968,0.611,1.221,0.864,0.380,0.673,0.632,���쓌,1.5,��
2021/02/13,14:20,0.669,0.968,0.612,1.221,0.865,0.381,0.671,0.631,���쓌,2.0,��
2021/02/13,14:30,0.669,0.970,0.615,1.219,0.863,0.381,0.671,0.631,�쓌,3.8,��
2021/02/13,14:40,0.667,0.970,0.613,1.222,0.864,0.379,0.673,0.631,�쓌,2.0,��
2021/02/13,14:50,0.667,0.968,0.614,1.221,0.864,0.380,0.673,0.631,�쓌,1.9,��
2021/02/13,15:00,0.666,0.967,0.615,1.221,0.866,0.379,0.671,0.630,�쓌,1.9,��
2021/02/13,15:10,0.668,0.968,0.611,1.223,0.864,0.380,0.672,0.631,�쓌,1.7,��
2021/02/13,15:20,0.669,0.968,0.615,1.221,0.865,0.381,0.673,0.631,��쓌,2.5,��
2021/02/13,15:30,0.670,0.971,0.613,1.221,0.865,0.382,0.672,0.633,��쓌,2.6,��
2021/02/13,15:40,0.669,0.972,0.614,1.224,0.864,0.381,0.675,0.633,�쓌,3.1,��
2021/02/13,15:50,0.669,0.971,0.614,1.222,0.863,0.382,0.674,0.632,���쓌,2.9,��
2021/02/13,16:00,0.669,0.970,0.614,1.220,0.864,0.381,0.673,0.633,�쓌,2.0,��
2021/02/13,16:10,0.669,0.972,0.614,1.222,0.865,0.381,0.675,0.635,���쓌,2.2,��
2021/02/13,16:20,0.669,0.971,0.613,1.222,0.863,0.380,0.674,0.635,���쓌,1.7,��
2021/02/13,16:30,0.670,0.972,0.614,1.224,0.863,0.381,0.674,0.634,��,2.0,��
2021/02/13,16:40,0.669,0.970,0.613,1.223,0.861,0.382,0.675,0.633,���k��,2.0,��
2021/02/13,16:50,0.670,0.971,0.614,1.220,0.863,0.382,0.674,0.634,���k��,1.9,��
2021/02/13,17:00,0.669,0.971,0.616,1.221,0.861,0.381,0.674,0.633,���k��,1.4,��
2021/02/13,17:10,0.670,0.970,0.614,1.221,0.863,0.380,0.674,0.634,��,0.6,��
2021/02/13,17:20,0.670,0.972,0.614,1.223,0.866,0.382,0.673,0.635,�k,1.2,��
2021/02/13,17:30,0.668,0.970,0.615,1.220,0.866,0.381,0.673,0.633,�k�k��,2.6,��
2021/02/13,17:40,0.669,0.969,0.613,1.221,0.866,0.381,0.675,0.633,�k��,2.9,��
2021/02/13,17:50,0.669,0.968,0.615,1.223,0.867,0.380,0.673,0.633,�k��,2.8,��
2021/02/13,18:00,0.671,0.970,0.614,1.222,0.863,0.380,0.674,0.633,���k��,2.2,��
2021/02/13,18:10,0.670,0.968,0.616,1.221,0.864,0.381,0.673,0.635,�k��,2.6,��
2021/02/13,18:20,0.668,0.970,0.614,1.222,0.865,0.381,0.673,0.633,�k��,2.9,��
2021/02/13,18:30,0.670,0.970,0.615,1.221,0.864,0.381,0.674,0.633,���k��,2.6,��
2021/02/13,18:40,0.670,0.969,0.616,1.220,0.865,0.380,0.673,0.632,��,2.0,��
2021/02/13,18:50,0.671,0.968,0.615,1.223,0.865,0.381,0.675,0.633,��,2.0,��
2021/02/13,19:00,0.669,0.970,0.614,1.221,0.864,0.380,0.675,0.633,���쐼,2.2,��
2021/02/13,19:10,0.670,0.971,0.615,1.222,0.865,0.381,0.673,0.634,�쐼,2.3,��
2021/02/13,19:20,0.669,0.968,0.614,1.221,0.863,0.381,0.674,0.634,�쐼,3.4,��
2021/02/13,19:30,0.669,0.970,0.614,1.220,0.865,0.381,0.674,0.633,�쐼,4.3,��
2021/02/13,19:40,0.670,0.967,0.614,1.220,0.865,0.380,0.674,0.633,�쐼,4.5,��
2021/02/13,19:50,0.670,0.971,0.615,1.219,0.865,0.381,0.673,0.636,���쐼,3.5,��
2021/02/13,20:00,0.670,0.971,0.614,1.220,0.864,0.382,0.673,0.632,���쐼,3.2,��
2021/02/13,20:10,0.670,0.967,0.614,1.220,0.863,0.381,0.674,0.634,���쐼,3.2,��
2021/02/13,20:20,0.670,0.967,0.614,1.221,0.864,0.381,0.674,0.634,���쐼,4.6,��
2021/02/13,20:30,0.669,0.967,0.614,1.222,0.864,0.381,0.673,0.633,�쐼,5.6,��
2021/02/13,20:40,0.669,0.970,0.614,1.218,0.865,0.381,0.673,0.635,���쐼,5.6,��
2021/02/13,20:50,0.670,0.967,0.615,1.221,0.866,0.380,0.674,0.634,���쐼,6.3,��
2021/02/13,21:00,0.670,0.968,0.614,1.219,0.864,0.381,0.674,0.633,���쐼,6.8,��
2021/02/13,21:10,0.670,0.968,0.614,1.218,0.864,0.380,0.674,0.634,�쐼,7.4,��
2021/02/13,21:20,0.669,0.967,0.614,1.219,0.865,0.381,0.676,0.635,���쐼,6.1,��
2021/02/13,21:30,0.671,0.968,0.615,1.221,0.862,0.380,0.674,0.632,�쐼,4.1,��
2021/02/13,21:40,0.671,0.969,0.614,1.219,0.864,0.381,0.675,0.633,���쐼,5.1,��
2021/02/13,21:50,0.670,0.968,0.614,1.220,0.862,0.380,0.674,0.633,���쐼,5.4,��
2021/02/13,22:00,0.671,0.969,0.614,1.222,0.863,0.380,0.676,0.634,�쐼,4.1,��
2021/02/13,22:10,0.670,0.967,0.613,1.221,0.864,0.381,0.673,0.634,�쐼,4.4,��
2021/02/13,22:20,0.669,0.969,0.613,1.219,0.865,0.380,0.674,0.632,�쐼,4.4,��
2021/02/13,22:30,0.670,0.967,0.613,1.220,0.863,0.381,0.676,0.634,�쐼,4.9,��
2021/02/13,22:40,0.668,0.966,0.613,1.219,0.863,0.381,0.675,0.633,�쐼,6.7,��
2021/02/13,22:50,0.671,0.967,0.616,1.218,0.865,0.380,0.674,0.633,�쐼,8.1,��
2021/02/13,23:00,0.670,0.969,0.615,1.221,0.864,0.380,0.675,0.633,�쐼,7.0,��
2021/02/13,23:10,0.668,0.967,0.612,1.220,0.863,0.380,0.675,0.634,��쐼,4.4,��
2021/02/13,23:20,0.667,0.968,0.612,1.218,0.864,0.380,0.675,0.634,�쐼,3.7,��
2021/02/13,23:30,0.669,0.968,0.613,1.221,0.864,0.380,0.675,0.632,�쐼,3.9,��
2021/02/13,23:40,0.668,0.966,0.613,1.220,0.865,0.381,0.676,0.633,�쐼,2.5,��
2021/02/13,23:50,0.669,0.967,0.613,1.217,0.862,0.380,0.679,0.633,���k��,1.9,��
